Weather History for Belmar-Farmingdale, NJ

Change the Weather History Date:

Thursday, February 14, 2013

  Actual Average Record
Temperature  
Mean Temperature 39 °F -  
Max Temperature 46 °F 40 °F 57 °F (2011)
Min Temperature 32 °F 26 °F 10 °F (2003)
Degree Days  
Heating Degree Days 26    
Moisture  
Dew Point 32 °F    
Average Humidity 84    
Maximum Humidity 100    
Minimum Humidity 46    
Precipitation  
Precipitation 0.00 in - - ()
Sea Level Pressure  
Sea Level Pressure 29.92 in    
Wind  
Wind Speed 7 mph (West)    
Max Wind Speed 9 mph    
Max Gust Speed -    
Visibility 6 miles    
Events      
Averages and records for this station are not official NWS values.
T = Trace of Precipitation, MM = Missing Value Source: NWS Daily Summary

Daily Weather History Graph

Daily Weather History Graph

Search for Another Location

Airport:

Trip Planner

Search our weather history database for the weather conditions in past years. The results will help you decide how hot, cold, wet, or windy it might be!

Date:

Astronomy

Feb. 14, 2013 Rise Set
Actual Time 6:50 AM EST 5:31 PM EST
Civil Twilight 6:22 AM EST 5:59 PM EST
Nautical Twilight 5:50 AM EST 6:30 PM EST
Astronomical Twilight 5:19 AM EST 7:02 PM EST
Moon 8:50 AM EST (2/14) 10:32 PM EST (2/14)
Length of Visible Light 11h 36m
Length of Day
10h 40m
Waxing Crescent, 21% of the Moon is Illuminated
Feb 14
Waxing Crescent
Feb 17
First Quarter
Feb 25
Full
Mar 4
Last Quarter
Mar 11
New

Hourly Weather History & Observations

Time (EST) Temp. Windchill Dew Point Humidity Pressure Visibility Wind Dir Wind Speed Gust Speed Precip Events Conditions
12:15 AM 33.8 °F 26.4 °F 32.0 °F 93% 29.70 in 4.0 mi NNW 9.2 mph - N/A   Overcast
12:35 AM 33.8 °F 26.4 °F 32.0 °F 93% 29.71 in 4.0 mi NNW 9.2 mph - N/A   Overcast
12:55 AM 33.8 °F 27.0 °F 32.0 °F 93% 29.71 in 3.0 mi NNW 8.1 mph - N/A   Overcast
1:15 AM 33.8 °F 27.0 °F 32.0 °F 93% 29.71 in 4.0 mi NNW 8.1 mph - N/A   Overcast
1:35 AM 33.8 °F 27.0 °F 33.8 °F 100% 29.71 in 4.0 mi NNW 8.1 mph - N/A   Overcast
1:55 AM 33.8 °F 27.0 °F 32.0 °F 93% 29.72 in 5.0 mi NNW 8.1 mph - N/A   Overcast
2:15 AM 33.8 °F 26.4 °F 33.8 °F 100% 29.74 in 5.0 mi NNW 9.2 mph - N/A   Overcast
2:35 AM 33.8 °F 27.0 °F 33.8 °F 100% 29.76 in 5.0 mi NW 8.1 mph - N/A   Overcast
2:55 AM 33.8 °F 26.4 °F 33.8 °F 100% 29.77 in 5.0 mi NW 9.2 mph - N/A   Overcast
3:15 AM 33.8 °F 26.4 °F 32.0 °F 93% 29.78 in 6.0 mi NNW 9.2 mph - N/A   Overcast
3:35 AM 33.8 °F 27.7 °F 33.8 °F 100% 29.78 in 6.0 mi NW 6.9 mph - N/A   Overcast
3:55 AM 33.8 °F 27.7 °F 33.8 °F 100% 29.79 in 6.0 mi NW 6.9 mph - N/A   Overcast
4:15 AM 33.8 °F 27.7 °F 33.8 °F 100% 29.80 in 5.0 mi NW 6.9 mph - N/A   Overcast
4:35 AM 33.8 °F 30.8 °F 32.0 °F 93% 29.80 in 5.0 mi NW 3.5 mph - N/A   Overcast
4:55 AM 33.8 °F 29.6 °F 32.0 °F 93% 29.81 in 4.0 mi WNW 4.6 mph - N/A   Scattered Clouds
5:15 AM 32.0 °F 26.4 °F 30.2 °F 93% 29.82 in 4.0 mi WNW 5.8 mph - N/A   Clear
5:35 AM 32.0 °F 25.6 °F 30.2 °F 93% 29.83 in 4.0 mi WNW 6.9 mph - N/A   Clear
5:55 AM 32.0 °F 26.4 °F 30.2 °F 93% 29.84 in 3.0 mi West 5.8 mph - N/A   Clear
6:15 AM 32.0 °F 25.6 °F 30.2 °F 93% 29.85 in 3.0 mi West 6.9 mph - N/A   Clear
6:35 AM 32.0 °F 26.4 °F 30.2 °F 93% 29.86 in 4.0 mi West 5.8 mph - N/A   Clear
6:55 AM 32.0 °F 25.6 °F 30.2 °F 93% 29.88 in 2.5 mi West 6.9 mph - N/A   Clear
7:15 AM 32.0 °F 26.4 °F 30.2 °F 93% 29.89 in 3.0 mi West 5.8 mph - N/A   Clear
7:35 AM 32.0 °F 26.4 °F 30.2 °F 93% 29.89 in 3.0 mi West 5.8 mph - N/A   Clear
7:55 AM 33.8 °F 29.6 °F 30.2 °F 87% 29.91 in 2.5 mi West 4.6 mph - N/A   Clear
8:15 AM 33.8 °F 30.8 °F 32.0 °F 93% 29.92 in 2.5 mi West 3.5 mph - N/A   Clear
8:35 AM 33.8 °F 30.8 °F 33.8 °F 100% 29.93 in 3.0 mi West 3.5 mph - N/A   Clear
8:55 AM 33.8 °F 30.8 °F 33.8 °F 100% 29.94 in 2.0 mi West 3.5 mph - N/A   Mostly Cloudy
9:15 AM 35.6 °F 32.8 °F 33.8 °F 93% 29.94 in 2.5 mi WSW 3.5 mph - N/A   Overcast
9:35 AM 37.4 °F 33.8 °F 33.8 °F 87% 29.95 in 4.0 mi West 4.6 mph - N/A   Overcast
9:55 AM 37.4 °F 32.8 °F 35.6 °F 93% 29.95 in 5.0 mi West 5.8 mph - N/A   Overcast
10:15 AM 37.4 °F 32.8 °F 35.6 °F 93% 29.96 in 4.0 mi WNW 5.8 mph - N/A   Overcast
10:35 AM 37.4 °F 31.4 °F 33.8 °F 87% 29.96 in 9.0 mi WNW 8.1 mph - N/A   Mostly Cloudy
10:55 AM 37.4 °F 32.8 °F 33.8 °F 87% 29.96 in 9.0 mi West 5.8 mph - N/A   Mostly Cloudy
11:15 AM 39.2 °F 35.0 °F 33.8 °F 81% 29.96 in 8.0 mi NW 5.8 mph - N/A   Mostly Cloudy
11:35 AM 39.2 °F 34.2 °F 33.8 °F 81% 29.97 in 10.0 mi NW 6.9 mph - N/A   Mostly Cloudy
11:55 AM 41.0 °F - 33.8 °F 76% 29.97 in 10.0 mi Calm Calm - N/A   Partly Cloudy
12:15 PM 41.0 °F 39.0 °F 32.0 °F 70% 29.96 in 10.0 mi WNW 3.5 mph - N/A   Scattered Clouds
12:35 PM 42.8 °F 39.3 °F 30.2 °F 61% 29.96 in 10.0 mi WSW 5.8 mph - N/A   Partly Cloudy
12:55 PM 42.8 °F 40.1 °F 30.2 °F 61% 29.95 in 10.0 mi WNW 4.6 mph - N/A   Clear
1:15 PM 44.6 °F 40.2 °F 26.6 °F 49% 29.95 in 10.0 mi West 8.1 mph - N/A   Clear
1:35 PM 44.6 °F - 28.4 °F 53% 29.95 in 10.0 mi Calm Calm - N/A   Clear
1:55 PM 44.6 °F 41.4 °F 28.4 °F 53% 29.95 in 10.0 mi West 5.8 mph - N/A   Clear
2:15 PM 44.6 °F 43.1 °F 28.4 °F 53% 29.95 in 10.0 mi WSW 3.5 mph - N/A   Clear
2:35 PM 44.6 °F 40.7 °F 28.4 °F 53% 29.95 in 10.0 mi West 6.9 mph - N/A   Clear
2:55 PM 46.4 °F 43.5 °F 28.4 °F 50% 29.95 in 10.0 mi WNW 5.8 mph - N/A   Scattered Clouds
3:15 PM 46.4 °F 42.9 °F 26.6 °F 46% 29.95 in 10.0 mi SW 6.9 mph - N/A   Partly Cloudy
3:35 PM 46.4 °F 43.5 °F 28.4 °F 50% 29.95 in 10.0 mi WSW 5.8 mph - N/A   Clear
3:55 PM 46.4 °F 42.9 °F 28.4 °F 50% 29.96 in 10.0 mi SW 6.9 mph - N/A   Partly Cloudy
4:15 PM 44.6 °F 40.2 °F 33.8 °F 66% 29.97 in 10.0 mi South 8.1 mph - N/A   Scattered Clouds
4:35 PM 42.8 °F 37.5 °F 33.8 °F 70% 29.98 in 10.0 mi South 9.2 mph - N/A   Scattered Clouds
4:55 PM 42.8 °F 38.0 °F 33.8 °F 70% 29.98 in 10.0 mi South 8.1 mph - N/A   Scattered Clouds
5:15 PM 41.0 °F 36.4 °F 33.8 °F 76% 29.98 in 10.0 mi South 6.9 mph - N/A   Clear
5:35 PM 39.2 °F 35.0 °F 33.8 °F 81% 29.98 in 10.0 mi SSE 5.8 mph - N/A   Partly Cloudy
5:55 PM 39.2 °F 35.9 °F 33.8 °F 81% 29.98 in 9.0 mi South 4.6 mph - N/A   Clear
6:15 PM 37.4 °F 33.8 °F 35.6 °F 93% 29.99 in 9.0 mi South 4.6 mph - N/A   Clear
6:35 PM 37.4 °F 34.9 °F 35.6 °F 93% 29.99 in 7.0 mi SSW 3.5 mph - N/A   Clear
6:55 PM 37.4 °F 33.8 °F 35.6 °F 93% 29.99 in 7.0 mi SSW 4.6 mph - N/A   Clear
7:15 PM 37.4 °F 33.8 °F 35.6 °F 93% 30.00 in 7.0 mi SW 4.6 mph - N/A   Clear
7:35 PM 37.4 °F 33.8 °F 33.8 °F 87% 30.00 in 7.0 mi SSW 4.6 mph - N/A   Clear
7:55 PM 37.4 °F 33.8 °F 33.8 °F 87% 30.00 in 5.0 mi South 4.6 mph - N/A   Clear
8:15 PM 37.4 °F 32.8 °F 33.8 °F 87% 30.00 in 5.0 mi SW 5.8 mph - N/A   Clear
8:35 PM 35.6 °F 31.7 °F 33.8 °F 93% 30.00 in 5.0 mi SW 4.6 mph - N/A   Clear
8:55 PM 35.6 °F 30.7 °F 33.8 °F 93% 30.01 in 5.0 mi SW 5.8 mph - N/A   Clear
9:15 PM 35.6 °F 30.7 °F 33.8 °F 93% 30.01 in 5.0 mi SW 5.8 mph - N/A   Clear
9:35 PM 35.6 °F 31.7 °F 33.8 °F 93% 30.01 in 4.0 mi SSW 4.6 mph - N/A   Clear
9:55 PM 35.6 °F 29.9 °F 33.8 °F 93% 30.01 in 4.0 mi SW 6.9 mph - N/A   Clear
10:15 PM 35.6 °F 29.9 °F 33.8 °F 93% 30.02 in 5.0 mi SW 6.9 mph - N/A   Clear
10:35 PM 35.6 °F 29.2 °F 32.0 °F 87% 30.02 in 5.0 mi SW 8.1 mph - N/A   Clear
10:55 PM 35.6 °F 30.7 °F 32.0 °F 87% 30.01 in 5.0 mi SW 5.8 mph - N/A   Clear
11:15 PM 33.8 °F 28.6 °F 32.0 °F 93% 30.01 in 6.0 mi SW 5.8 mph - N/A   Clear
11:35 PM 33.8 °F 27.7 °F 32.0 °F 93% 30.02 in 5.0 mi SW 6.9 mph - N/A   Clear
11:55 PM 33.8 °F 29.6 °F 32.0 °F 93% 30.03 in 5.0 mi SSW 4.6 mph - N/A   Clear